When you browse on this site, cookies collect data to enhance your experience and personalize the content and advertising you see.
Visit our Privacy Policy to learn more. By continuing to use the site, you agree to this use of cookies and data.
  • In Deutschland
  • Länderverzeichnis
  • Für 7 Tage
  • Wassertemperatur
  • Wetterkarte
  • Widgets
  • user-avatar
    Anmelden

    Stündliche Wetter Pyshminskaya

    Heute, 16 Oktober, Mittwoch

    Zeit Temperatur Niederschläge Wind Luftdruck Luftfeuchtigkeit
    00:00 +2°C° 0 mm 2 m/S 728 mmHg 93%
    01:00 0°C° 0 mm 3 m/S 729 mmHg 92%
    02:00 0°C° 0 mm 3 m/S 729 mmHg 91%
    03:00 0°C° 0 mm 3 m/S 729 mmHg 91%
    04:00 -1°C° 0 mm 4 m/S 730 mmHg 90%
    05:00 -1°C° 0 mm 4 m/S 730 mmHg 90%
    06:00 -1°C° 0 mm 4 m/S 730 mmHg 90%
    07:00 -1°C° 0 mm 4 m/S 731 mmHg 91%
    08:00 -1°C° 0 mm 4 m/S 731 mmHg 92%
    09:00 -1°C° 0 mm 4 m/S 732 mmHg 93%
    10:00 -1°C° 0 mm 4 m/S 732 mmHg 94%
    11:00 0°C° 0.1 mm 4 m/S 732 mmHg 88%
    12:00 0°C° 0.1 mm 5 m/S 733 mmHg 83%
    13:00 +1°C° 0.1 mm 5 m/S 733 mmHg 77%
    14:00 +1°C° 0 mm 5 m/S 734 mmHg 77%
    15:00 0°C° 0 mm 5 m/S 734 mmHg 77%
    16:00 0°C° 0 mm 4 m/S 735 mmHg 77%
    17:00 0°C° 0 mm 4 m/S 736 mmHg 79%
    18:00 -1°C° 0 mm 4 m/S 736 mmHg 81%
    19:00 -2°C° 0 mm 4 m/S 736 mmHg 84%
    20:00 -2°C° 0 mm 4 m/S 737 mmHg 84%
    21:00 -2°C° 0 mm 4 m/S 737 mmHg 84%
    22:00 -2°C° 0 mm 4 m/S 738 mmHg 84%
    23:00 -3°C° 0 mm 4 m/S 738 mmHg 83%

    Morgen, 17 Oktober, Donnerstag

    Zeit Temperatur Niederschläge Wind Luftdruck Luftfeuchtigkeit
    00:00 -3°C° 0 mm 4 m/S 738 mmHg 83%
    01:00 -3°C° 0 mm 4 m/S 739 mmHg 82%
    02:00 -3°C° 0 mm 4 m/S 739 mmHg 81%
    03:00 -3°C° 0 mm 4 m/S 740 mmHg 80%
    04:00 -3°C° 0 mm 4 m/S 740 mmHg 79%
    05:00 -3°C° 0 mm 4 m/S 740 mmHg 80%
    06:00 -3°C° 0 mm 4 m/S 740 mmHg 81%
    07:00 -3°C° 0 mm 4 m/S 741 mmHg 82%
    08:00 -2°C° 0 mm 4 m/S 741 mmHg 79%
    09:00 -2°C° 0 mm 4 m/S 741 mmHg 76%
    10:00 -2°C° 0 mm 4 m/S 741 mmHg 73%
    11:00 -2°C° 0 mm 4 m/S 741 mmHg 72%
    12:00 -1°C° 0 mm 4 m/S 741 mmHg 71%
    13:00 -1°C° 0 mm 4 m/S 741 mmHg 70%
    14:00 0°C° 0 mm 3 m/S 741 mmHg 71%
    15:00 0°C° 0 mm 3 m/S 741 mmHg 72%
    16:00 0°C° 0 mm 3 m/S 741 mmHg 73%
    17:00 -1°C° 0 mm 2 m/S 740 mmHg 78%
    18:00 -1°C° 0 mm 2 m/S 740 mmHg 84%
    19:00 -2°C° 0 mm 2 m/S 740 mmHg 90%
    20:00 -2°C° 0.4 mm 2 m/S 740 mmHg 92%
    21:00 -2°C° 0.4 mm 2 m/S 739 mmHg 94%
    22:00 -2°C° 0.4 mm 2 m/S 739 mmHg 96%
    23:00 -2°C° 0.5 mm 2 m/S 738 mmHg 97%

    übermorgen, 18 Oktober, Freitag

    Zeit Temperatur Niederschläge Wind Luftdruck Luftfeuchtigkeit
    00:00 -2°C° 0.5 mm 2 m/S 737 mmHg 97%
    01:00 -2°C° 0.5 mm 2 m/S 736 mmHg 97%
    02:00 -2°C° 0.5 mm 2 m/S 736 mmHg 97%
    03:00 -1°C° 0.5 mm 2 m/S 735 mmHg 97%
    04:00 -1°C° 0.5 mm 2 m/S 735 mmHg 97%
    05:00 -1°C° 0.5 mm 2 m/S 734 mmHg 97%
    06:00 -1°C° 0.5 mm 2 m/S 734 mmHg 97%
    07:00 -1°C° 0.5 mm 2 m/S 733 mmHg 97%
    08:00 -1°C° 0.4 mm 2 m/S 733 mmHg 97%
    09:00 +1°C° 0.4 mm 1 m/S 733 mmHg 97%
    10:00 +2°C° 0.4 mm 1 m/S 733 mmHg 97%
    11:00 +1°C° 0.2 mm 2 m/S 733 mmHg 96%
    12:00 +1°C° 0.2 mm 2 m/S 733 mmHg 96%
    13:00 0°C° 0.2 mm 3 m/S 734 mmHg 96%
    14:00 -1°C° 0.2 mm 3 m/S 734 mmHg 95%
    15:00 -1°C° 0.2 mm 3 m/S 735 mmHg 94%
    16:00 -2°C° 0.2 mm 4 m/S 735 mmHg 93%
    17:00 -2°C° 0.1 mm 4 m/S 736 mmHg 93%
    18:00 -2°C° 0.1 mm 3 m/S 737 mmHg 92%
    19:00 -2°C° 0.1 mm 3 m/S 737 mmHg 91%
    20:00 -3°C° 0.1 mm 4 m/S 738 mmHg 90%
    21:00 -4°C° 0.1 mm 4 m/S 739 mmHg 90%
    22:00 -4°C° 0.1 mm 4 m/S 740 mmHg 89%
    23:00 -4°C° 0 mm 4 m/S 740 mmHg 88%

    19 Oktober, Samstag

    Zeit Temperatur Niederschläge Wind Luftdruck Luftfeuchtigkeit
    00:00 -5°C° 0 mm 3 m/S 741 mmHg 87%
    01:00 -5°C° 0 mm 3 m/S 741 mmHg 87%
    02:00 -6°C° 0 mm 3 m/S 742 mmHg 90%
    03:00 -6°C° 0 mm 2 m/S 742 mmHg 92%
    04:00 -7°C° 0 mm 2 m/S 743 mmHg 95%
    05:00 -8°C° 0 mm 2 m/S 743 mmHg 96%
    06:00 -8°C° 0 mm 2 m/S 743 mmHg 96%
    07:00 -8°C° 0 mm 2 m/S 744 mmHg 96%
    08:00 -7°C° 0 mm 2 m/S 744 mmHg 91%
    09:00 -6°C° 0 mm 2 m/S 745 mmHg 85%
    10:00 -4°C° 0 mm 2 m/S 745 mmHg 79%
    11:00 -3°C° 0 mm 2 m/S 746 mmHg 74%
    12:00 -1°C° 0 mm 1 m/S 746 mmHg 70%
    13:00 0°C° 0 mm 1 m/S 746 mmHg 65%
    14:00 0°C° 0 mm 1 m/S 746 mmHg 69%
    15:00 -1°C° 0 mm 1 m/S 746 mmHg 72%
    16:00 -1°C° 0 mm 1 m/S 746 mmHg 76%
    17:00 -3°C° 0 mm 0 m/S 747 mmHg 79%
    18:00 -4°C° 0 mm 0 m/S 747 mmHg 82%
    19:00 -5°C° 0 mm 0 m/S 747 mmHg 85%
    20:00 -6°C° 0 mm 0 m/S 747 mmHg 86%
    21:00 -6°C° 0 mm 1 m/S 747 mmHg 88%
    22:00 -6°C° 0 mm 1 m/S 747 mmHg 89%
    23:00 -6°C° 0 mm 1 m/S 747 mmHg 89%

    20 Oktober, Sonntag

    Zeit Temperatur Niederschläge Wind Luftdruck Luftfeuchtigkeit
    00:00 -6°C° 0 mm 1 m/S 747 mmHg 90%
    01:00 -6°C° 0 mm 1 m/S 747 mmHg 91%
    02:00 -6°C° 0 mm 1 m/S 747 mmHg 91%
    03:00 -6°C° 0 mm 1 m/S 747 mmHg 90%
    04:00 -7°C° 0 mm 1 m/S 747 mmHg 90%
    05:00 -7°C° 0 mm 1 m/S 747 mmHg 90%
    06:00 -7°C° 0 mm 1 m/S 747 mmHg 90%
    07:00 -7°C° 0 mm 1 m/S 747 mmHg 90%
    08:00 -6°C° 0 mm 2 m/S 747 mmHg 85%
    09:00 -4°C° 0 mm 2 m/S 747 mmHg 79%
    10:00 -4°C° 0 mm 3 m/S 747 mmHg 73%
    11:00 -2°C° 0 mm 3 m/S 747 mmHg 73%
    12:00 0°C° 0 mm 3 m/S 746 mmHg 73%
    13:00 +1°C° 0 mm 3 m/S 746 mmHg 73%
    14:00 0°C° 0 mm 3 m/S 746 mmHg 76%
    15:00 0°C° 0 mm 3 m/S 745 mmHg 79%
    16:00 -1°C° 0 mm 3 m/S 745 mmHg 82%
    17:00 -1°C° 0 mm 3 m/S 745 mmHg 82%
    18:00 -2°C° 0 mm 3 m/S 744 mmHg 83%
    19:00 -4°C° 0 mm 4 m/S 744 mmHg 83%
    20:00 -3°C° 0 mm 4 m/S 744 mmHg 82%
    21:00 -3°C° 0 mm 4 m/S 743 mmHg 80%
    22:00 -4°C° 0 mm 5 m/S 743 mmHg 79%
    23:00 -2°C° 0 mm 5 m/S 743 mmHg 80%

    21 Oktober, Montag

    Zeit Temperatur Niederschläge Wind Luftdruck Luftfeuchtigkeit
    00:00 -2°C° 0 mm 5 m/S 742 mmHg 80%
    01:00 -2°C° 0 mm 5 m/S 742 mmHg 81%
    02:00 -1°C° 0.1 mm 5 m/S 742 mmHg 83%
    03:00 -1°C° 0.1 mm 5 m/S 741 mmHg 85%
    04:00 -1°C° 0.1 mm 5 m/S 741 mmHg 87%
    05:00 -1°C° 0.1 mm 5 m/S 741 mmHg 89%
    06:00 -1°C° 0.1 mm 4 m/S 741 mmHg 90%
    07:00 -1°C° 0.1 mm 4 m/S 740 mmHg 91%
    08:00 0°C° 0.1 mm 4 m/S 740 mmHg 92%
    09:00 0°C° 0.1 mm 4 m/S 740 mmHg 92%
    10:00 +1°C° 0.1 mm 4 m/S 740 mmHg 92%
    11:00 +2°C° 0.1 mm 3 m/S 740 mmHg 93%
    12:00 +2°C° 0.1 mm 3 m/S 740 mmHg 94%
    13:00 +3°C° 0.1 mm 2 m/S 740 mmHg 95%
    14:00 +3°C° 0.1 mm 2 m/S 741 mmHg 96%
    15:00 +2°C° 0.1 mm 2 m/S 741 mmHg 96%
    16:00 +2°C° 0.1 mm 2 m/S 741 mmHg 97%
    17:00 +2°C° 0 mm 2 m/S 741 mmHg 97%
    18:00 +3°C° 0 mm 1 m/S 741 mmHg 97%
    19:00 +3°C° 0 mm 1 m/S 742 mmHg 97%
    20:00 +3°C° 0 mm 1 m/S 742 mmHg 97%
    21:00 +3°C° 0 mm 1 m/S 742 mmHg 97%
    22:00 +2°C° 0 mm 1 m/S 742 mmHg 97%
    23:00 +2°C° 0 mm 1 m/S 742 mmHg 97%
    Mehr zeigen